Time,TemperatureF,DewpointF,PressureIn,WindDirection,WindDirectionDegrees,WindSpeedMPH,WindSpeedGustMPH,Humidity,HourlyPrecipIn,Conditions,Clouds,dailyrainin,SoftwareType,DateUTC
2014-02-14 00:01:00,23.6,21.4,29.49,NE,48,3.5,3.5,91,0.00,,,0.00,WeatherDisplay:10.37,2014-02-14 05:01:00,
2014-02-14 00:02:00,23.6,21.4,29.49,ENE,60,3.5,3.5,91,0.00,,,0.00,WeatherDisplay:10.37,2014-02-14 05:02:00,
2014-02-14 00:07:00,23.6,21.4,29.48,South,169,4.6,4.6,91,0.00,,,0.00,WeatherDisplay:10.37,2014-02-14 05:07:00,
2014-02-14 00:12:00,23.6,21.4,29.48,East,94,3.5,3.5,91,0.00,,,0.00,WeatherDisplay:10.37,2014-02-14 05:12:00,
2014-02-14 00:17:00,23.5,21.3,29.48,NNW,346,5.8,5.8,91,0.00,,,0.00,WeatherDisplay:10.37,2014-02-14 05:17:00,
2014-02-14 00:22:00,23.5,21.3,29.48,SE,145,4.6,4.6,91,0.00,,,0.00,WeatherDisplay:10.37,2014-02-14 05:22:00,
2014-02-14 00:27:00,23.5,21.3,29.48,NNW,337,2.3,2.3,91,0.00,,,0.00,WeatherDisplay:10.37,2014-02-14 05:27:00,
2014-02-14 00:32:00,23.4,21.2,29.47,NNE,20,4.6,4.6,91,0.00,,,0.00,WeatherDisplay:10.37,2014-02-14 05:32:00,
2014-02-14 00:37:00,23.3,21.1,29.47,NNE,32,4.6,4.6,91,0.00,,,0.00,WeatherDisplay:10.37,2014-02-14 05:37:00,
2014-02-14 00:42:00,23.2,21.0,29.46,ENE,59,3.5,3.5,91,0.00,,,0.00,WeatherDisplay:10.37,2014-02-14 05:42:00,
2014-02-14 00:47:00,23.2,21.0,29.46,NE,54,0.0,0.0,91,0.00,,,0.00,WeatherDisplay:10.37,2014-02-14 05:47:00,
2014-02-14 00:52:00,23.1,20.9,29.46,South,170,3.5,3.5,91,0.00,,,0.00,WeatherDisplay:10.37,2014-02-14 05:52:00,
2014-02-14 00:57:00,23.0,20.8,29.46,NNW,347,0.0,0.1,91,0.00,,,0.00,WeatherDisplay:10.37,2014-02-14 05:57:00,
2014-02-14 01:02:00,23.0,20.8,29.46,ENE,66,2.3,2.3,91,0.00,,,0.00,WeatherDisplay:10.37,2014-02-14 06:02:00,
2014-02-14 01:07:00,22.9,20.7,29.45,East,80,3.5,3.5,91,0.00,,,0.00,WeatherDisplay:10.37,2014-02-14 06:07:00,
2014-02-14 01:13:00,22.9,20.7,29.46,NE,47,0.0,0.6,91,0.00,,,0.00,WeatherDisplay:10.37,2014-02-14 06:13:00,
2014-02-14 01:18:00,22.8,20.6,29.46,NW,307,2.3,2.3,91,0.00,,,0.00,WeatherDisplay:10.37,2014-02-14 06:18:00,
2014-02-14 01:23:00,22.8,20.6,29.46,SSW,207,1.1,1.1,91,0.00,,,0.00,WeatherDisplay:10.37,2014-02-14 06:23:00,
2014-02-14 01:28:00,22.7,20.5,29.45,NW,319,0.0,0.0,91,0.00,,,0.00,WeatherDisplay:10.37,2014-02-14 06:28:00,
2014-02-14 01:33:00,22.7,20.5,29.45,NNE,20,0.0,0.0,91,0.00,,,0.00,WeatherDisplay:10.37,2014-02-14 06:33:00,
2014-02-14 01:38:00,22.7,20.5,29.45,NW,308,0.0,0.0,91,0.00,,,0.00,WeatherDisplay:10.37,2014-02-14 06:38:00,
2014-02-14 01:43:00,22.7,20.5,29.45,East,93,0.0,0.0,91,0.00,,,0.00,WeatherDisplay:10.37,2014-02-14 06:43:00,
2014-02-14 01:48:00,22.7,20.5,29.45,SE,128,0.0,0.0,91,0.00,,,0.00,WeatherDisplay:10.37,2014-02-14 06:48:00,
2014-02-14 01:53:00,22.7,20.5,29.45,NE,34,0.0,0.0,91,0.00,,,0.00,WeatherDisplay:10.37,2014-02-14 06:53:00,
2014-02-14 01:58:00,22.7,20.5,29.45,West,266,0.0,0.0,91,0.00,,,0.00,WeatherDisplay:10.37,2014-02-14 06:58:00,
2014-02-14 02:03:00,22.7,20.5,29.45,ENE,58,0.0,0.0,91,0.00,,,0.00,WeatherDisplay:10.37,2014-02-14 07:03:00,
2014-02-14 02:08:00,22.6,20.4,29.45,NW,307,0.0,0.0,91,0.00,,,0.00,WeatherDisplay:10.37,2014-02-14 07:08:00,
2014-02-14 02:13:00,22.7,20.5,29.44,East,79,0.0,0.0,91,0.00,,,0.00,WeatherDisplay:10.37,2014-02-14 07:13:00,
2014-02-14 02:18:00,22.6,20.4,29.44,SSW,208,0.0,0.0,91,0.00,,,0.00,WeatherDisplay:10.37,2014-02-14 07:18:00,
2014-02-14 02:23:00,22.6,20.4,29.44,NE,40,0.0,0.0,91,0.00,,,0.00,WeatherDisplay:10.37,2014-02-14 07:23:00,
2014-02-14 02:28:00,22.6,20.4,29.44,NW,319,0.0,0.0,91,0.00,,,0.00,WeatherDisplay:10.37,2014-02-14 07:28:00,
2014-02-14 02:33:00,22.6,20.4,29.43,WNW,295,0.0,0.0,91,0.00,,,0.00,WeatherDisplay:10.37,2014-02-14 07:33:00,
2014-02-14 02:38:00,22.6,20.4,29.43,WNW,291,0.0,0.0,91,0.00,,,0.00,WeatherDisplay:10.37,2014-02-14 07:38:00,
2014-02-14 02:43:00,22.6,20.4,29.43,NW,317,0.0,0.0,91,0.00,,,0.00,WeatherDisplay:10.37,2014-02-14 07:43:00,
2014-02-14 02:48:00,22.6,20.4,29.43,NNE,32,0.0,0.0,91,0.00,,,0.00,WeatherDisplay:10.37,2014-02-14 07:48:00,
2014-02-14 02:53:00,22.6,20.4,29.43,NNW,338,0.0,0.0,91,0.00,,,0.00,WeatherDisplay:10.37,2014-02-14 07:53:00,
2014-02-14 02:58:00,22.6,20.4,29.43,NNW,335,0.0,0.0,91,0.00,,,0.00,WeatherDisplay:10.37,2014-02-14 07:58:00,
2014-02-14 03:03:00,22.7,20.5,29.43,WNW,298,0.0,0.0,91,0.00,,,0.00,WeatherDisplay:10.37,2014-02-14 08:03:00,
2014-02-14 03:08:00,22.7,20.5,29.43,WSW,246,0.0,0.0,91,0.00,,,0.00,WeatherDisplay:10.37,2014-02-14 08:08:00,
2014-02-14 03:13:00,22.8,20.6,29.43,NE,56,0.0,0.0,91,0.00,,,0.00,WeatherDisplay:10.37,2014-02-14 08:13:00,
2014-02-14 03:18:00,22.8,20.6,29.42,NE,53,0.0,0.0,91,0.00,,,0.00,WeatherDisplay:10.37,2014-02-14 08:18:00,
2014-02-14 03:23:00,22.8,20.6,29.43,WNW,295,0.0,0.0,91,0.00,,,0.00,WeatherDisplay:10.37,2014-02-14 08:23:00,
2014-02-14 03:28:00,22.8,20.6,29.43,West,268,0.0,0.0,91,0.00,,,0.00,WeatherDisplay:10.37,2014-02-14 08:28:00,
2014-02-14 03:33:00,22.9,20.7,29.43,West,280,0.0,0.0,91,0.00,,,0.00,WeatherDisplay:10.37,2014-02-14 08:33:00,
2014-02-14 03:38:00,22.9,20.7,29.43,WSW,238,0.0,0.0,91,0.00,,,0.00,WeatherDisplay:10.37,2014-02-14 08:38:00,
2014-02-14 03:43:00,22.9,20.7,29.43,North,4,0.0,0.0,91,0.00,,,0.00,WeatherDisplay:10.37,2014-02-14 08:43:00,
2014-02-14 03:48:00,23.0,20.8,29.43,WNW,283,0.0,0.0,91,0.00,,,0.00,WeatherDisplay:10.37,2014-02-14 08:48:00,
2014-02-14 03:53:00,23.0,20.8,29.43,WNW,297,0.0,0.0,91,0.00,,,0.00,WeatherDisplay:10.37,2014-02-14 08:53:00,
2014-02-14 03:58:00,23.0,20.8,29.43,NW,309,0.0,0.0,91,0.00,,,0.00,WeatherDisplay:10.37,2014-02-14 08:58:00,
2014-02-14 04:03:00,23.1,20.9,29.43,WNW,288,0.0,0.0,91,0.00,,,0.00,WeatherDisplay:10.37,2014-02-14 09:03:00,
2014-02-14 04:08:00,23.1,20.9,29.43,North,4,0.0,0.0,91,0.00,,,0.00,WeatherDisplay:10.37,2014-02-14 09:08:00,
2014-02-14 04:13:00,23.0,20.8,29.42,West,280,0.0,0.0,91,0.00,,,0.00,WeatherDisplay:10.37,2014-02-14 09:13:00,
2014-02-14 04:18:00,23.0,20.8,29.42,West,274,0.0,0.0,91,0.00,,,0.00,WeatherDisplay:10.37,2014-02-14 09:18:00,
2014-02-14 04:23:00,23.1,20.9,29.42,West,262,0.0,0.0,91,0.00,,,0.00,WeatherDisplay:10.37,2014-02-14 09:23:00,
2014-02-14 04:28:00,23.1,20.9,29.42,WNW,284,0.0,0.0,91,0.00,,,0.00,WeatherDisplay:10.37,2014-02-14 09:28:00,
2014-02-14 04:33:00,23.1,20.9,29.42,WNW,297,0.0,0.0,91,0.00,,,0.00,WeatherDisplay:10.37,2014-02-14 09:33:00,
2014-02-14 04:38:00,23.1,20.9,29.42,WSW,249,0.0,0.0,91,0.00,,,0.00,WeatherDisplay:10.37,2014-02-14 09:38:00,
2014-02-14 04:43:00,23.1,20.9,29.42,West,281,0.0,0.0,91,0.00,,,0.00,WeatherDisplay:10.37,2014-02-14 09:43:00,
2014-02-14 04:48:00,23.1,20.9,29.43,NW,314,0.0,0.0,91,0.00,,,0.00,WeatherDisplay:10.37,2014-02-14 09:48:00,
2014-02-14 04:53:00,23.1,20.9,29.43,WNW,297,0.0,0.0,91,0.00,,,0.00,WeatherDisplay:10.37,2014-02-14 09:53:00,
2014-02-14 04:58:00,23.1,20.9,29.43,West,277,0.0,0.0,91,0.00,,,0.00,WeatherDisplay:10.37,2014-02-14 09:58:00,
2014-02-14 05:03:00,23.2,21.0,29.43,West,275,0.0,0.0,91,0.00,,,0.00,WeatherDisplay:10.37,2014-02-14 10:03:00,
2014-02-14 05:08:00,23.2,21.0,29.43,WNW,298,0.0,0.0,91,0.00,,,0.00,WeatherDisplay:10.37,2014-02-14 10:08:00,
2014-02-14 05:13:00,23.3,21.1,29.43,NW,307,0.0,0.0,91,0.00,,,0.00,WeatherDisplay:10.37,2014-02-14 10:13:00,
2014-02-14 05:18:00,23.4,21.2,29.43,WNW,289,0.0,0.0,91,0.00,,,0.00,WeatherDisplay:10.37,2014-02-14 10:18:00,
2014-02-14 05:23:00,23.4,21.2,29.43,WNW,290,0.0,0.0,91,0.00,,,0.00,WeatherDisplay:10.37,2014-02-14 10:23:00,
2014-02-14 05:28:00,23.5,21.3,29.43,West,269,0.0,0.0,91,0.00,,,0.00,WeatherDisplay:10.37,2014-02-14 10:28:00,
2014-02-14 05:33:00,23.5,21.3,29.44,West,280,0.0,0.0,91,0.00,,,0.00,WeatherDisplay:10.37,2014-02-14 10:33:00,
2014-02-14 05:38:00,23.6,21.4,29.44,WNW,297,0.0,0.0,91,0.00,,,0.00,WeatherDisplay:10.37,2014-02-14 10:38:00,
2014-02-14 05:43:00,23.6,21.4,29.44,NW,310,0.0,0.0,91,0.00,,,0.00,WeatherDisplay:10.37,2014-02-14 10:43:00,
2014-02-14 05:48:00,23.6,21.4,29.44,WSW,243,0.0,0.0,91,0.00,,,0.00,WeatherDisplay:10.37,2014-02-14 10:48:00,
2014-02-14 05:53:00,23.7,21.5,29.44,WNW,297,0.0,0.0,91,0.00,,,0.00,WeatherDisplay:10.37,2014-02-14 10:53:00,
2014-02-14 05:58:00,23.7,21.5,29.44,WSW,256,0.0,0.0,91,0.00,,,0.00,WeatherDisplay:10.37,2014-02-14 10:58:00,
2014-02-14 06:03:00,23.7,21.5,29.44,WNW,287,0.0,0.0,91,0.00,,,0.00,WeatherDisplay:10.37,2014-02-14 11:03:00,
2014-02-14 06:08:00,23.7,21.5,29.44,West,270,0.0,0.0,91,0.00,,,0.00,WeatherDisplay:10.37,2014-02-14 11:08:00,
2014-02-14 06:13:00,23.7,21.5,29.43,WNW,294,0.0,0.0,91,0.00,,,0.00,WeatherDisplay:10.37,2014-02-14 11:13:00,
2014-02-14 06:18:00,23.7,21.5,29.44,WNW,293,0.0,0.0,91,0.00,,,0.00,WeatherDisplay:10.37,2014-02-14 11:18:00,
2014-02-14 06:23:00,23.7,21.5,29.44,West,278,0.0,0.0,91,0.00,,,0.00,WeatherDisplay:10.37,2014-02-14 11:23:00,
2014-02-14 06:28:00,23.7,21.5,29.43,NW,315,0.0,0.0,91,0.00,,,0.00,WeatherDisplay:10.37,2014-02-14 11:28:00,
2014-02-14 06:33:00,23.7,21.5,29.43,NW,312,0.0,0.0,91,0.00,,,0.00,WeatherDisplay:10.37,2014-02-14 11:33:00,
2014-02-14 06:38:00,23.7,21.5,29.42,West,271,0.0,0.0,91,0.00,,,0.00,WeatherDisplay:10.37,2014-02-14 11:38:00,
2014-02-14 06:43:00,23.7,21.5,29.43,West,275,0.0,0.0,91,0.00,,,0.00,WeatherDisplay:10.37,2014-02-14 11:43:00,
2014-02-14 06:48:00,23.7,21.5,29.43,North,1,0.0,0.0,91,0.00,,,0.00,WeatherDisplay:10.37,2014-02-14 11:48:00,
2014-02-14 06:53:00,23.6,21.4,29.43,West,280,0.0,0.0,91,0.00,,,0.00,WeatherDisplay:10.37,2014-02-14 11:53:00,
2014-02-14 06:58:00,23.6,21.4,29.43,West,259,0.0,0.0,91,0.00,,,0.00,WeatherDisplay:10.37,2014-02-14 11:58:00,
2014-02-14 07:03:00,23.6,21.4,29.43,West,280,0.0,0.0,91,0.00,,,0.00,WeatherDisplay:10.37,2014-02-14 12:03:00,
2014-02-14 07:08:00,23.7,21.5,29.43,NW,326,0.0,0.0,91,0.00,,,0.00,WeatherDisplay:10.37,2014-02-14 12:08:00,
2014-02-14 07:13:00,23.6,21.4,29.43,WNW,290,0.0,0.0,91,0.00,,,0.00,WeatherDisplay:10.37,2014-02-14 12:13:00,
2014-02-14 07:18:00,23.8,21.6,29.43,WNW,290,0.0,0.0,91,0.00,,,0.00,WeatherDisplay:10.37,2014-02-14 12:18:00,
2014-02-14 07:23:00,23.8,21.6,29.43,WSW,255,0.0,0.0,91,0.00,,,0.00,WeatherDisplay:10.37,2014-02-14 12:23:00,
2014-02-14 07:28:00,23.9,21.7,29.43,North,10,0.0,0.0,91,0.00,,,0.00,WeatherDisplay:10.37,2014-02-14 12:28:00,
2014-02-14 07:33:00,24.0,22.0,29.44,WNW,302,0.0,0.0,92,0.00,,,0.00,WeatherDisplay:10.37,2014-02-14 12:33:00,
2014-02-14 07:38:00,24.1,22.1,29.44,WSW,257,0.0,0.0,92,0.00,,,0.00,WeatherDisplay:10.37,2014-02-14 12:38:00,
2014-02-14 07:43:00,24.1,22.1,29.44,WNW,302,0.0,0.0,92,0.00,,,0.00,WeatherDisplay:10.37,2014-02-14 12:43:00,
2014-02-14 07:48:00,24.2,22.2,29.44,WNW,283,0.0,0.0,92,0.00,,,0.00,WeatherDisplay:10.37,2014-02-14 12:48:00,
2014-02-14 07:53:00,24.3,22.3,29.44,West,277,0.0,0.0,92,0.00,,,0.00,WeatherDisplay:10.37,2014-02-14 12:53:00,
2014-02-14 07:58:00,24.3,22.3,29.44,WNW,297,0.0,0.0,92,0.00,,,0.00,WeatherDisplay:10.37,2014-02-14 12:58:00,
2014-02-14 08:03:00,24.4,22.4,29.45,WNW,283,0.0,0.0,92,0.00,,,0.00,WeatherDisplay:10.37,2014-02-14 13:03:00,
2014-02-14 08:08:00,24.5,22.2,29.45,NNW,340,0.0,0.0,91,0.00,,,0.00,WeatherDisplay:10.37,2014-02-14 13:08:00,
2014-02-14 08:13:00,24.6,22.3,29.45,SW,228,0.0,0.0,91,0.00,,,0.00,WeatherDisplay:10.37,2014-02-14 13:13:00,
2014-02-14 08:18:00,24.6,22.3,29.45,SW,225,0.0,0.0,91,0.00,,,0.00,WeatherDisplay:10.37,2014-02-14 13:18:00,
2014-02-14 08:23:00,24.7,22.4,29.45,WNW,284,0.0,0.0,91,0.00,,,0.00,WeatherDisplay:10.37,2014-02-14 13:23:00,
2014-02-14 08:28:00,24.7,22.4,29.45,WSW,248,0.0,0.0,91,0.00,,,0.00,WeatherDisplay:10.37,2014-02-14 13:28:00,
2014-02-14 08:33:00,24.8,22.5,29.45,WNW,287,0.0,0.0,91,0.00,,,0.00,WeatherDisplay:10.37,2014-02-14 13:33:00,
2014-02-14 08:38:00,25.0,22.7,29.45,West,270,0.0,0.0,91,0.00,,,0.00,WeatherDisplay:10.37,2014-02-14 13:38:00,
2014-02-14 08:43:00,25.1,22.8,29.45,NW,323,0.0,0.0,91,0.00,,,0.00,WeatherDisplay:10.37,2014-02-14 13:43:00,
2014-02-14 08:48:00,25.3,23.0,29.45,WSW,241,0.0,0.0,91,0.00,,,0.00,WeatherDisplay:10.37,2014-02-14 13:48:00,
2014-02-14 08:53:00,25.5,23.2,29.45,West,281,0.0,0.0,91,0.00,,,0.00,WeatherDisplay:10.37,2014-02-14 13:53:00,
2014-02-14 08:58:00,25.6,23.3,29.45,WNW,297,0.0,0.0,91,0.00,,,0.00,WeatherDisplay:10.37,2014-02-14 13:58:00,
2014-02-14 09:03:00,25.8,23.3,29.45,WNW,293,0.0,0.0,90,0.00,,,0.00,WeatherDisplay:10.37,2014-02-14 14:03:00,
2014-02-14 09:08:00,26.0,23.5,29.45,NNE,23,0.0,0.0,90,0.00,,,0.00,WeatherDisplay:10.37,2014-02-14 14:08:00,
2014-02-14 09:13:00,26.1,23.6,29.45,NW,311,0.0,0.0,90,0.00,,,0.00,WeatherDisplay:10.37,2014-02-14 14:13:00,
2014-02-14 09:18:00,26.3,23.8,29.45,West,281,0.0,0.0,90,0.00,,,0.00,WeatherDisplay:10.37,2014-02-14 14:18:00,
2014-02-14 09:23:00,26.5,24.0,29.46,West,281,0.0,0.0,90,0.00,,,0.00,WeatherDisplay:10.37,2014-02-14 14:23:00,
2014-02-14 09:28:00,26.6,23.8,29.46,NW,317,0.0,0.0,89,0.00,,,0.00,WeatherDisplay:10.37,2014-02-14 14:28:00,
2014-02-14 09:34:00,26.8,24.0,29.46,WSW,251,0.0,0.0,89,0.00,,,0.00,WeatherDisplay:10.37,2014-02-14 14:34:00,
2014-02-14 09:39:00,27.0,24.5,29.46,WNW,285,0.0,0.0,90,0.00,,,0.00,WeatherDisplay:10.37,2014-02-14 14:39:00,
2014-02-14 09:44:00,27.2,24.4,29.46,WNW,298,0.0,0.0,89,0.00,,,0.00,WeatherDisplay:10.37,2014-02-14 14:44:00,
2014-02-14 09:49:00,27.7,24.9,29.46,NW,307,0.0,0.0,89,0.00,,,0.00,WeatherDisplay:10.37,2014-02-14 14:49:00,
2014-02-14 09:54:00,28.3,25.2,29.46,WSW,249,0.0,0.0,88,0.00,,,0.00,WeatherDisplay:10.37,2014-02-14 14:54:00,
2014-02-14 09:59:00,28.5,25.1,29.46,NNW,335,0.0,0.0,87,0.00,,,0.00,WeatherDisplay:10.37,2014-02-14 14:59:00,
2014-02-14 10:04:00,28.7,25.3,29.47,NW,322,0.0,0.0,87,0.00,,,0.00,WeatherDisplay:10.37,2014-02-14 15:04:00,
2014-02-14 10:09:00,28.6,25.2,29.47,South,191,0.0,0.0,87,0.00,,,0.00,WeatherDisplay:10.37,2014-02-14 15:09:00,
2014-02-14 10:14:00,28.5,25.1,29.47,West,275,0.0,0.0,87,0.00,,,0.00,WeatherDisplay:10.37,2014-02-14 15:14:00,
2014-02-14 10:19:00,28.6,25.2,29.47,West,273,0.0,0.0,87,0.00,,,0.00,WeatherDisplay:10.37,2014-02-14 15:19:00,
2014-02-14 10:24:00,28.7,25.0,29.47,West,259,0.0,0.0,86,0.00,,,0.00,WeatherDisplay:10.37,2014-02-14 15:24:00,
2014-02-14 10:29:00,28.8,25.1,29.47,West,262,0.0,0.0,86,0.00,,,0.00,WeatherDisplay:10.37,2014-02-14 15:29:00,
2014-02-14 10:34:00,28.7,25.0,29.47,WSW,256,0.0,0.0,86,0.00,,,0.00,WeatherDisplay:10.37,2014-02-14 15:34:00,
2014-02-14 10:39:00,28.9,25.5,29.48,West,259,0.0,0.0,87,0.00,,,0.00,WeatherDisplay:10.37,2014-02-14 15:39:00,
2014-02-14 10:44:00,29.0,25.3,29.48,WSW,258,0.0,0.0,86,0.00,,,0.00,WeatherDisplay:10.37,2014-02-14 15:44:00,
2014-02-14 10:49:00,29.1,25.4,29.48,WSW,251,0.0,0.0,86,0.00,,,0.00,WeatherDisplay:10.37,2014-02-14 15:49:00,
2014-02-14 10:54:00,29.2,25.3,29.48,WSW,239,0.0,0.0,85,0.00,,,0.00,WeatherDisplay:10.37,2014-02-14 15:54:00,
2014-02-14 10:59:00,29.3,25.6,29.49,WSW,250,0.0,0.0,86,0.00,,,0.00,WeatherDisplay:10.37,2014-02-14 15:59:00,
2014-02-14 11:04:00,29.3,25.4,29.49,WNW,300,0.0,0.0,85,0.00,,,0.00,WeatherDisplay:10.37,2014-02-14 16:04:00,
2014-02-14 11:09:00,29.4,25.4,29.49,West,271,0.0,0.0,85,0.00,,,0.00,WeatherDisplay:10.37,2014-02-14 16:09:00,
2014-02-14 11:14:00,29.8,25.8,29.49,SW,231,0.0,0.0,85,0.00,,,0.00,WeatherDisplay:10.37,2014-02-14 16:14:00,
2014-02-14 11:19:00,30.0,25.8,29.49,WSW,253,0.0,0.0,84,0.00,,,0.00,WeatherDisplay:10.37,2014-02-14 16:19:00,
2014-02-14 11:24:00,30.2,26.2,29.49,North,3,0.0,0.0,85,0.00,,,0.00,WeatherDisplay:10.37,2014-02-14 16:24:00,
2014-02-14 11:29:00,30.2,25.9,29.49,SSE,166,0.0,0.0,84,0.00,,,0.00,WeatherDisplay:10.37,2014-02-14 16:29:00,
2014-02-14 11:34:00,30.2,25.9,29.49,NNW,342,0.0,0.0,84,0.00,,,0.00,WeatherDisplay:10.37,2014-02-14 16:34:00,
2014-02-14 11:39:00,30.4,26.1,29.49,WSW,241,0.0,0.0,84,0.00,,,0.00,WeatherDisplay:10.37,2014-02-14 16:39:00,
2014-02-14 11:44:00,30.4,25.9,29.49,WSW,245,0.0,0.0,83,0.00,,,0.00,WeatherDisplay:10.37,2014-02-14 16:44:00,
2014-02-14 11:49:00,30.6,26.1,29.49,WNW,297,0.0,0.0,83,0.00,,,0.00,WeatherDisplay:10.37,2014-02-14 16:49:00,
2014-02-14 11:54:00,30.6,26.1,29.49,SW,221,0.0,0.0,83,0.00,,,0.00,WeatherDisplay:10.37,2014-02-14 16:54:00,
2014-02-14 11:59:00,30.8,26.2,29.49,WNW,284,0.0,0.0,83,0.00,,,0.00,WeatherDisplay:10.37,2014-02-14 16:59:00,
2014-02-14 12:04:00,30.5,25.7,29.49,West,278,0.0,0.0,82,0.00,,,0.00,WeatherDisplay:10.37,2014-02-14 17:04:00,
2014-02-14 12:09:00,30.5,25.7,29.49,WNW,289,0.0,0.0,82,0.00,,,0.00,WeatherDisplay:10.37,2014-02-14 17:09:00,
2014-02-14 12:14:00,30.5,25.4,29.49,WNW,301,0.0,0.0,81,0.00,,,0.00,WeatherDisplay:10.37,2014-02-14 17:14:00,
2014-02-14 12:19:00,30.4,25.3,29.49,WSW,249,0.0,0.0,81,0.00,,,0.00,WeatherDisplay:10.37,2014-02-14 17:19:00,
2014-02-14 12:24:00,30.4,25.3,29.49,SSW,194,0.0,0.0,81,0.00,,,0.00,WeatherDisplay:10.37,2014-02-14 17:24:00,
2014-02-14 12:29:00,30.6,25.5,29.49,South,169,0.0,0.0,81,0.00,,,0.00,WeatherDisplay:10.37,2014-02-14 17:29:00,
2014-02-14 12:34:00,30.6,25.2,29.49,WSW,239,0.0,0.0,80,0.00,,,0.00,WeatherDisplay:10.37,2014-02-14 17:34:00,
2014-02-14 12:39:00,30.9,25.8,29.49,WNW,289,0.0,0.0,81,0.00,,,0.00,WeatherDisplay:10.37,2014-02-14 17:39:00,
2014-02-14 12:44:00,30.6,25.2,29.50,West,275,0.0,0.0,80,0.00,,,0.00,WeatherDisplay:10.37,2014-02-14 17:44:00,
2014-02-14 12:49:00,30.6,25.5,29.50,West,281,0.0,0.0,81,0.00,,,0.00,WeatherDisplay:10.37,2014-02-14 17:49:00,
2014-02-14 12:54:00,30.7,25.3,29.50,West,280,0.0,0.0,80,0.00,,,0.00,WeatherDisplay:10.37,2014-02-14 17:54:00,
2014-02-14 12:59:00,30.8,25.1,29.50,WNW,287,0.0,0.0,79,0.00,,,0.00,WeatherDisplay:10.37,2014-02-14 17:59:00,
2014-02-14 13:04:00,31.2,25.1,29.50,WNW,287,0.0,0.0,78,0.00,,,0.00,WeatherDisplay:10.37,2014-02-14 18:04:00,
2014-02-14 13:09:00,31.7,25.6,29.50,West,280,0.0,0.0,78,0.00,,,0.00,WeatherDisplay:10.37,2014-02-14 18:09:00,
2014-02-14 13:14:00,32.2,25.5,29.51,West,278,0.0,0.0,76,0.00,,,0.00,WeatherDisplay:10.37,2014-02-14 18:14:00,
2014-02-14 13:19:00,32.1,25.4,29.51,NW,321,0.0,0.0,76,0.00,,,0.00,WeatherDisplay:10.37,2014-02-14 18:19:00,
2014-02-14 13:24:00,31.7,24.4,29.51,WNW,293,0.0,0.0,74,0.00,,,0.00,WeatherDisplay:10.37,2014-02-14 18:24:00,
2014-02-14 13:29:00,31.7,24.4,29.51,NE,56,0.0,0.0,74,0.00,,,0.00,WeatherDisplay:10.37,2014-02-14 18:29:00,
2014-02-14 13:34:00,31.9,24.6,29.51,WNW,297,0.0,0.0,74,0.00,,,0.00,WeatherDisplay:10.37,2014-02-14 18:34:00,
2014-02-14 13:39:00,31.9,24.6,29.52,NW,308,0.0,0.0,74,0.00,,,0.00,WeatherDisplay:10.37,2014-02-14 18:39:00,
2014-02-14 13:44:00,32.0,24.3,29.52,NNE,29,0.0,0.0,73,0.00,,,0.00,WeatherDisplay:10.37,2014-02-14 18:44:00,
2014-02-14 13:49:00,32.0,24.6,29.52,WNW,295,0.0,0.0,74,0.00,,,0.00,WeatherDisplay:10.37,2014-02-14 18:49:00,
2014-02-14 13:54:00,32.2,24.5,29.52,West,281,0.0,0.0,73,0.00,,,0.00,WeatherDisplay:10.37,2014-02-14 18:54:00,
2014-02-14 13:59:00,32.8,24.4,29.53,WNW,297,0.0,0.0,71,0.00,,,0.00,WeatherDisplay:10.37,2014-02-14 18:59:00,
2014-02-14 14:04:00,33.2,24.5,29.53,West,263,0.0,0.0,70,0.00,,,0.00,WeatherDisplay:10.37,2014-02-14 19:04:00,
2014-02-14 14:09:00,33.3,23.9,29.53,NW,321,0.0,0.0,68,0.00,,,0.00,WeatherDisplay:10.37,2014-02-14 19:09:00,
2014-02-14 14:14:00,33.2,22.7,29.53,WSW,255,0.0,0.0,65,0.00,,,0.00,WeatherDisplay:10.37,2014-02-14 19:14:00,
2014-02-14 14:19:00,32.9,23.8,29.53,NNE,13,0.0,0.0,69,0.00,,,0.00,WeatherDisplay:10.37,2014-02-14 19:19:00,
2014-02-14 14:24:00,33.0,22.1,29.54,West,281,0.0,0.0,64,0.00,,,0.00,WeatherDisplay:10.37,2014-02-14 19:24:00,
2014-02-14 14:29:00,33.1,21.5,29.54,WNW,297,0.0,0.0,62,0.00,,,0.00,WeatherDisplay:10.37,2014-02-14 19:29:00,
2014-02-14 14:34:00,33.2,22.0,29.54,WNW,287,0.0,0.0,63,0.00,,,0.00,WeatherDisplay:10.37,2014-02-14 19:34:00,
2014-02-14 14:39:00,33.2,21.6,29.55,West,264,0.0,0.0,62,0.00,,,0.00,WeatherDisplay:10.37,2014-02-14 19:39:00,
2014-02-14 14:45:00,33.2,22.0,29.55,NNE,23,0.0,0.0,63,0.00,,,0.00,WeatherDisplay:10.37,2014-02-14 19:45:00,
2014-02-14 14:50:00,33.3,22.4,29.55,WSW,240,0.0,0.0,64,0.00,,,0.00,WeatherDisplay:10.37,2014-02-14 19:50:00,
2014-02-14 14:55:00,33.2,21.6,29.55,West,270,0.0,0.0,62,0.00,,,0.00,WeatherDisplay:10.37,2014-02-14 19:55:00,
2014-02-14 15:00:00,32.7,21.5,29.56,WNW,287,0.0,0.0,63,0.00,,,0.00,WeatherDisplay:10.37,2014-02-14 20:00:00,
2014-02-14 15:05:00,32.4,21.2,29.56,SW,228,0.0,0.0,63,0.00,,,0.00,WeatherDisplay:10.37,2014-02-14 20:05:00,
2014-02-14 15:10:00,32.2,21.4,29.57,WNW,290,0.0,0.0,64,0.00,,,0.00,WeatherDisplay:10.37,2014-02-14 20:10:00,
2014-02-14 15:15:00,32.1,22.0,29.57,WNW,282,6.9,6.9,66,0.00,,,0.00,WeatherDisplay:10.37,2014-02-14 20:15:00,
2014-02-14 15:20:00,32.0,22.6,29.57,West,275,3.5,3.5,68,0.00,,,0.00,WeatherDisplay:10.37,2014-02-14 20:20:00,
2014-02-14 15:25:00,32.0,22.3,29.58,WSW,238,6.9,6.9,67,0.00,,,0.00,WeatherDisplay:10.37,2014-02-14 20:25:00,
2014-02-14 15:30:00,32.1,22.4,29.57,NW,309,2.3,2.3,67,0.00,,,0.00,WeatherDisplay:10.37,2014-02-14 20:30:00,
2014-02-14 15:35:00,31.8,22.4,29.58,WNW,297,5.8,5.8,68,0.00,,,0.00,WeatherDisplay:10.37,2014-02-14 20:35:00,
2014-02-14 15:40:00,31.6,22.2,29.58,NW,311,4.0,4.0,68,0.00,,,0.00,WeatherDisplay:10.37,2014-02-14 20:40:00,
2014-02-14 15:45:00,31.3,22.3,29.58,West,281,3.5,3.5,69,0.00,,,0.00,WeatherDisplay:10.37,2014-02-14 20:45:00,
2014-02-14 15:50:00,31.2,22.5,29.59,North,353,3.5,3.5,70,0.00,,,0.00,WeatherDisplay:10.37,2014-02-14 20:50:00,
2014-02-14 15:55:00,31.1,22.8,29.59,WSW,255,2.3,2.3,71,0.00,,,0.00,WeatherDisplay:10.37,2014-02-14 20:55:00,
2014-02-14 16:00:00,30.9,22.9,29.60,NE,41,12.7,12.7,72,0.00,,,0.00,WeatherDisplay:10.37,2014-02-14 21:00:00,
2014-02-14 16:05:00,30.6,23.0,29.60,SW,229,3.5,3.5,73,0.00,,,0.00,WeatherDisplay:10.37,2014-02-14 21:05:00,
2014-02-14 16:10:00,30.5,22.9,29.60,NW,306,6.9,6.9,73,0.00,,,0.00,WeatherDisplay:10.37,2014-02-14 21:10:00,
2014-02-14 16:15:00,30.3,23.0,29.61,SSW,204,3.5,4.0,74,0.00,,,0.00,WeatherDisplay:10.37,2014-02-14 21:15:00,
2014-02-14 16:20:00,30.2,23.2,29.61,WSW,240,6.9,6.9,75,0.00,,,0.00,WeatherDisplay:10.37,2014-02-14 21:20:00,
2014-02-14 16:25:00,30.1,23.1,29.61,WNW,285,8.1,8.1,75,0.00,,,0.00,WeatherDisplay:10.37,2014-02-14 21:25:00,
2014-02-14 16:30:00,30.0,23.4,29.61,West,266,3.5,3.5,76,0.00,,,0.00,WeatherDisplay:10.37,2014-02-14 21:30:00,
2014-02-14 16:35:00,29.9,23.3,29.62,SW,236,3.5,3.5,76,0.00,,,0.00,WeatherDisplay:10.37,2014-02-14 21:35:00,
2014-02-14 16:40:00,29.9,23.3,29.62,WSW,242,3.5,3.5,76,0.00,,,0.00,WeatherDisplay:10.37,2014-02-14 21:40:00,
2014-02-14 16:45:00,29.8,23.5,29.62,West,281,2.3,2.3,77,0.00,,,0.00,WeatherDisplay:10.37,2014-02-14 21:45:00,
2014-02-14 16:50:00,29.6,23.3,29.62,SSW,205,1.1,1.1,77,0.00,,,0.00,WeatherDisplay:10.37,2014-02-14 21:50:00,
2014-02-14 16:55:00,29.6,23.3,29.62,West,274,6.0,6.0,77,0.00,,,0.00,WeatherDisplay:10.37,2014-02-14 21:55:00,
2014-02-14 17:00:00,29.5,23.2,29.62,SW,228,1.1,0.0,77,0.00,,,0.00,WeatherDisplay:10.37,2014-02-14 22:00:00,
2014-02-14 17:05:00,29.4,23.1,29.63,West,274,4.6,4.6,77,0.00,,,0.00,WeatherDisplay:10.37,2014-02-14 22:05:00,
2014-02-14 17:10:00,29.3,23.0,29.63,WNW,299,2.3,2.3,77,0.00,,,0.00,WeatherDisplay:10.37,2014-02-14 22:10:00,
2014-02-14 17:15:00,29.2,22.9,29.64,WSW,253,3.5,3.5,77,0.00,,,0.00,WeatherDisplay:10.37,2014-02-14 22:15:00,
2014-02-14 17:20:00,29.0,23.0,29.64,NW,314,2.3,2.4,78,0.00,,,0.00,WeatherDisplay:10.37,2014-02-14 22:20:00,
2014-02-14 17:25:00,28.8,22.5,29.64,West,264,3.5,3.5,77,0.00,,,0.00,WeatherDisplay:10.37,2014-02-14 22:25:00,
2014-02-14 17:30:00,28.5,22.2,29.64,West,281,2.3,2.3,77,0.00,,,0.00,WeatherDisplay:10.37,2014-02-14 22:30:00,
2014-02-14 17:35:00,28.2,22.2,29.65,WNW,297,3.0,3.0,78,0.00,,,0.00,WeatherDisplay:10.37,2014-02-14 22:35:00,
2014-02-14 17:40:00,28.0,22.0,29.65,West,276,2.3,2.3,78,0.00,,,0.00,WeatherDisplay:10.37,2014-02-14 22:40:00,
2014-02-14 17:45:00,27.7,21.7,29.66,WSW,248,2.3,2.3,78,0.00,,,0.00,WeatherDisplay:10.37,2014-02-14 22:45:00,
2014-02-14 17:50:00,27.5,21.8,29.66,West,281,3.0,3.0,79,0.00,,,0.00,WeatherDisplay:10.37,2014-02-14 22:50:00,
2014-02-14 17:51:00,27.4,21.7,29.66,NNW,329,3.5,3.5,79,0.00,,,0.00,WeatherDisplay:10.37,2014-02-14 22:51:00,
2014-02-14 17:57:00,27.1,21.7,29.66,WSW,250,3.5,3.5,80,0.00,,,0.00,WeatherDisplay:10.37,2014-02-14 22:57:00,
2014-02-14 18:02:00,27.0,21.7,29.67,NE,47,5.0,5.0,80,0.00,,,0.00,WeatherDisplay:10.37,2014-02-14 23:02:00,
2014-02-14 18:07:00,27.1,21.7,29.67,West,278,3.0,3.0,80,0.00,,,0.00,WeatherDisplay:10.37,2014-02-14 23:07:00,
2014-02-14 18:12:00,27.0,21.7,29.67,NW,307,1.1,1.1,80,0.00,,,0.00,WeatherDisplay:10.37,2014-02-14 23:12:00,
2014-02-14 18:17:00,26.8,21.8,29.68,NNW,338,2.3,2.3,81,0.00,,,0.00,WeatherDisplay:10.37,2014-02-14 23:17:00,
2014-02-14 18:22:00,26.7,21.7,29.68,WNW,297,1.1,1.1,81,0.00,,,0.00,WeatherDisplay:10.37,2014-02-14 23:22:00,
2014-02-14 18:27:00,26.5,21.5,29.68,East,82,1.0,1.0,81,0.00,,,0.00,WeatherDisplay:10.37,2014-02-14 23:27:00,
2014-02-14 18:32:00,26.2,21.2,29.68,WNW,301,2.3,2.3,81,0.00,,,0.00,WeatherDisplay:10.37,2014-02-14 23:32:00,
2014-02-14 18:37:00,26.1,21.4,29.69,NW,323,2.0,2.0,82,0.00,,,0.00,WeatherDisplay:10.37,2014-02-14 23:37:00,
2014-02-14 18:42:00,26.0,21.3,29.69,West,268,1.1,1.1,82,0.00,,,0.00,WeatherDisplay:10.37,2014-02-14 23:42:00,
2014-02-14 18:47:00,26.2,21.5,29.69,West,278,6.9,6.9,82,0.00,,,0.00,WeatherDisplay:10.37,2014-02-14 23:47:00,
2014-02-14 18:52:00,26.3,21.3,29.70,WNW,301,1.1,1.1,81,0.00,,,0.00,WeatherDisplay:10.37,2014-02-14 23:52:00,
2014-02-14 18:57:00,25.9,21.2,29.70,NNW,343,2.3,0.0,82,0.00,,,0.00,WeatherDisplay:10.37,2014-02-14 23:57:00,
2014-02-14 19:02:00,25.8,21.1,29.70,NW,318,5.8,5.8,82,0.00,,,0.00,WeatherDisplay:10.37,2014-02-15 00:02:00,
2014-02-14 19:07:00,25.8,21.1,29.70,West,277,1.1,1.1,82,0.00,,,0.00,WeatherDisplay:10.37,2014-02-15 00:07:00,
2014-02-14 19:12:00,25.6,20.9,29.71,SSW,209,1.1,0.0,82,0.00,,,0.00,WeatherDisplay:10.37,2014-02-15 00:12:00,
2014-02-14 19:17:00,25.5,21.1,29.71,West,265,1.1,0.0,83,0.00,,,0.00,WeatherDisplay:10.37,2014-02-15 00:17:00,
2014-02-14 19:22:00,25.3,20.9,29.71,WSW,255,1.1,0.0,83,0.00,,,0.00,WeatherDisplay:10.37,2014-02-15 00:22:00,
2014-02-14 19:27:00,25.1,20.7,29.72,NW,326,0.0,0.9,83,0.00,,,0.00,WeatherDisplay:10.37,2014-02-15 00:27:00,
2014-02-14 19:32:00,25.2,20.8,29.72,NNE,23,0.0,0.0,83,0.00,,,0.00,WeatherDisplay:10.37,2014-02-15 00:32:00,
2014-02-14 19:37:00,25.3,20.9,29.72,ENE,66,1.1,0.0,83,0.00,,,0.00,WeatherDisplay:10.37,2014-02-15 00:37:00,
2014-02-14 19:42:00,25.3,21.1,29.72,West,259,0.0,0.8,84,0.00,,,0.00,WeatherDisplay:10.37,2014-02-15 00:42:00,
2014-02-14 19:47:00,25.3,20.9,29.71,West,259,0.0,0.0,83,0.00,,,0.00,WeatherDisplay:10.37,2014-02-15 00:47:00,
2014-02-14 19:52:00,25.3,20.9,29.72,SE,145,0.0,0.0,83,0.00,,,0.00,WeatherDisplay:10.37,2014-02-15 00:52:00,
2014-02-14 19:57:00,25.0,20.6,29.72,WNW,297,0.0,0.3,83,0.00,,,0.00,WeatherDisplay:10.37,2014-02-15 00:57:00,
2014-02-14 20:02:00,24.8,20.7,29.72,West,262,1.1,1.1,84,0.00,,,0.00,WeatherDisplay:10.37,2014-02-15 01:02:00,
2014-02-14 20:07:00,24.8,20.7,29.72,West,263,0.0,0.0,84,0.00,,,0.00,WeatherDisplay:10.37,2014-02-15 01:07:00,
2014-02-14 20:12:00,24.6,20.7,29.72,West,263,0.0,0.0,85,0.00,,,0.00,WeatherDisplay:10.37,2014-02-15 01:12:00,
2014-02-14 20:17:00,24.6,20.7,29.72,West,263,0.0,0.0,85,0.00,,,0.00,WeatherDisplay:10.37,2014-02-15 01:17:00,
2014-02-14 20:22:00,24.8,20.9,29.73,WSW,245,0.0,0.0,85,0.00,,,0.00,WeatherDisplay:10.37,2014-02-15 01:22:00,
2014-02-14 20:27:00,25.0,21.1,29.73,WSW,255,0.0,0.0,85,0.00,,,0.00,WeatherDisplay:10.37,2014-02-15 01:27:00,
2014-02-14 20:32:00,25.1,21.2,29.73,WNW,297,1.1,1.1,85,0.00,,,0.00,WeatherDisplay:10.37,2014-02-15 01:32:00,
2014-02-14 20:37:00,25.3,21.4,29.73,NW,306,0.0,0.0,85,0.00,,,0.00,WeatherDisplay:10.37,2014-02-15 01:37:00,
2014-02-14 20:42:00,25.4,21.5,29.73,NW,314,1.1,1.1,85,0.00,,,0.00,WeatherDisplay:10.37,2014-02-15 01:42:00,
2014-02-14 20:47:00,25.5,21.3,29.73,West,265,0.0,0.0,84,0.00,,,0.00,WeatherDisplay:10.37,2014-02-15 01:47:00,
2014-02-14 20:52:00,25.5,21.3,29.73,NW,323,0.0,0.0,84,0.00,,,0.00,WeatherDisplay:10.37,2014-02-15 01:52:00,
2014-02-14 20:57:00,25.4,21.2,29.73,NW,323,0.0,0.0,84,0.00,,,0.00,WeatherDisplay:10.37,2014-02-15 01:57:00,
2014-02-14 21:02:00,25.4,21.5,29.73,NW,323,0.0,0.0,85,0.00,,,0.00,WeatherDisplay:10.37,2014-02-15 02:02:00,
2014-02-14 21:07:00,25.4,21.5,29.73,WNW,293,0.0,0.0,85,0.00,,,0.00,WeatherDisplay:10.37,2014-02-15 02:07:00,
2014-02-14 21:12:00,25.4,21.5,29.73,WNW,293,0.0,0.0,85,0.00,,,0.00,WeatherDisplay:10.37,2014-02-15 02:12:00,
2014-02-14 21:17:00,25.5,21.6,29.73,WNW,293,0.0,0.0,85,0.00,,,0.00,WeatherDisplay:10.37,2014-02-15 02:17:00,
2014-02-14 21:22:00,25.5,21.9,29.73,WNW,294,0.0,0.0,86,0.00,,,0.00,WeatherDisplay:10.37,2014-02-15 02:22:00,
2014-02-14 21:27:00,25.5,21.6,29.73,WNW,293,0.0,0.0,85,0.00,,,0.00,WeatherDisplay:10.37,2014-02-15 02:27:00,
2014-02-14 21:32:00,25.5,21.6,29.73,WNW,294,0.0,0.0,85,0.00,,,0.00,WeatherDisplay:10.37,2014-02-15 02:32:00,
2014-02-14 21:37:00,25.4,21.5,29.74,WNW,294,0.0,0.0,85,0.00,,,0.00,WeatherDisplay:10.37,2014-02-15 02:37:00,
2014-02-14 21:42:00,25.4,21.8,29.74,WNW,294,0.0,0.0,86,0.00,,,0.00,WeatherDisplay:10.37,2014-02-15 02:42:00,
2014-02-14 21:47:00,25.5,21.6,29.74,WNW,293,0.0,0.0,85,0.00,,,0.00,WeatherDisplay:10.37,2014-02-15 02:47:00,
2014-02-14 21:52:00,25.4,21.5,29.74,WNW,294,0.0,0.0,85,0.00,,,0.00,WeatherDisplay:10.37,2014-02-15 02:52:00,
2014-02-14 21:57:00,25.3,21.4,29.74,WNW,294,0.0,0.0,85,0.00,,,0.00,WeatherDisplay:10.37,2014-02-15 02:57:00,
2014-02-14 22:02:00,25.5,21.9,29.74,NNW,333,0.0,0.0,86,0.00,,,0.00,WeatherDisplay:10.37,2014-02-15 03:02:00,
2014-02-14 22:07:00,25.6,22.0,29.74,NNW,335,0.0,0.0,86,0.00,,,0.00,WeatherDisplay:10.37,2014-02-15 03:07:00,
2014-02-14 22:12:00,25.8,22.5,29.74,NNW,335,0.0,0.0,87,0.00,,,0.00,WeatherDisplay:10.37,2014-02-15 03:12:00,
2014-02-14 22:17:00,25.9,22.3,29.74,NNW,334,0.0,0.0,86,0.00,,,0.00,WeatherDisplay:10.37,2014-02-15 03:17:00,
2014-02-14 22:22:00,25.9,22.3,29.74,NNW,334,0.0,0.0,86,0.00,,,0.00,WeatherDisplay:10.37,2014-02-15 03:22:00,
2014-02-14 22:27:00,26.1,22.8,29.74,NNW,334,0.0,0.0,87,0.00,,,0.00,WeatherDisplay:10.37,2014-02-15 03:27:00,
2014-02-14 22:32:00,26.3,23.0,29.75,NNW,335,0.0,0.0,87,0.00,,,0.00,WeatherDisplay:10.37,2014-02-15 03:32:00,
2014-02-14 22:37:00,26.5,22.9,29.75,ENE,78,0.0,0.0,86,0.00,,,0.00,WeatherDisplay:10.37,2014-02-15 03:37:00,
2014-02-14 22:42:00,26.6,23.0,29.75,ENE,77,0.0,0.0,86,0.00,,,0.00,WeatherDisplay:10.37,2014-02-15 03:42:00,
2014-02-14 22:47:00,26.6,23.0,29.75,SSE,153,1.0,0.0,86,0.00,,,0.00,WeatherDisplay:10.37,2014-02-15 03:47:00,
2014-02-14 22:52:00,26.7,23.1,29.75,SSW,211,2.3,2.3,86,0.00,,,0.00,WeatherDisplay:10.37,2014-02-15 03:52:00,
2014-02-14 22:57:00,26.9,23.0,29.75,ESE,115,0.0,0.2,85,0.00,,,0.00,WeatherDisplay:10.37,2014-02-15 03:57:00,
2014-02-14 23:02:00,27.0,23.1,29.75,SE,132,0.0,0.0,85,0.00,,,0.00,WeatherDisplay:10.37,2014-02-15 04:02:00,
2014-02-14 23:07:00,27.0,23.1,29.75,SE,131,1.1,1.1,85,0.00,,,0.00,WeatherDisplay:10.37,2014-02-15 04:07:00,
2014-02-14 23:12:00,27.1,23.2,29.75,ENE,72,2.3,2.3,85,0.00,,,0.00,WeatherDisplay:10.37,2014-02-15 04:12:00,
2014-02-14 23:17:00,27.2,23.3,29.75,SW,221,3.5,3.5,85,0.00,,,0.00,WeatherDisplay:10.37,2014-02-15 04:17:00,
2014-02-14 23:22:00,27.2,23.3,29.75,East,101,0.0,0.0,85,0.00,,,0.00,WeatherDisplay:10.37,2014-02-15 04:22:00,
2014-02-14 23:27:00,27.3,23.4,29.75,SW,217,0.0,0.0,85,0.00,,,0.00,WeatherDisplay:10.37,2014-02-15 04:27:00,
2014-02-14 23:32:00,27.3,23.4,29.75,SW,222,2.3,2.3,85,0.00,,,0.00,WeatherDisplay:10.37,2014-02-15 04:32:00,
2014-02-14 23:37:00,27.4,23.5,29.75,SSE,155,0.0,0.0,85,0.00,,,0.00,WeatherDisplay:10.37,2014-02-15 04:37:00,
2014-02-14 23:42:00,27.4,23.5,29.76,SSE,155,0.0,0.0,85,0.00,,,0.00,WeatherDisplay:10.37,2014-02-15 04:42:00,
2014-02-14 23:47:00,27.4,23.5,29.76,SSE,155,0.0,0.0,85,0.00,,,0.00,WeatherDisplay:10.37,2014-02-15 04:47:00,
2014-02-14 23:52:00,27.3,23.4,29.76,SSE,155,0.0,0.0,85,0.00,,,0.00,WeatherDisplay:10.37,2014-02-15 04:52:00,
2014-02-14 23:57:00,27.2,23.3,29.76,SSE,155,0.0,0.0,85,0.00,,,0.00,WeatherDisplay:10.37,2014-02-15 04:57:00,